This is the latest recevied weather packets stored in our database for station/object KC4GS-13. If no packets are shown the sender has not sent any weather packets the latest 10 day(s).
| Time | Temp. | Humidity | Pressure | Rain* | Wind** | Luminosity | Snow |
|---|---|---|---|---|---|---|---|
| 1778150252 | 19.44° C | 99% | 1011.2 hPa | 3.05 mm | - | 0 W/m² | - |
| 1778149949 | 19.44° C | 99% | 1012.2 hPa | 7.87 mm | - | 0 W/m² | - |
| 1778149645 | 19.44° C | 99% | 1011.6 hPa | 7.11 mm | - | 0 W/m² | - |
| 1778149342 | 19.44° C | 99% | 1011.8 hPa | 4.32 mm | - | 0 W/m² | - |
| 1778149038 | 19.44° C | 99% | 1012.4 hPa | 7.87 mm | - | 0 W/m² | - |
| 1778148733 | 19.44° C | 99% | 1011.9 hPa | 6.6 mm | - | 0 W/m² | - |
| 1778148431 | 19.44° C | 99% | 1011.8 hPa | 1.78 mm | - | 0 W/m² | - |
| 1778148129 | 19.44° C | 99% | 1012.4 hPa | 1.27 mm | - | 0 W/m² | - |
| 1778147827 | 19.44° C | 99% | 1012.5 hPa | 3.05 mm | - | 0 W/m² | - |
| 1778147523 | 19.44° C | 99% | 1012.8 hPa | 1.78 mm | - | 0 W/m² | - |
| 1778147220 | 19.44° C | 99% | 1012.7 hPa | 0 mm | - | 0 W/m² | - |
| 1778146917 | 19.44° C | 98% | 1012.9 hPa | 0 mm | - | 0 W/m² | - |
| 1778146614 | 19.44° C | 98% | 1012.9 hPa | 0 mm | - | 0 W/m² | - |
| 1778146313 | 19.44° C | 98% | 1012.6 hPa | 0 mm | - | 0 W/m² | - |
| 1778146009 | 19.44° C | 98% | 1012.6 hPa | 0 mm | - | 0 W/m² | - |
| 1778145706 | 19.44° C | 98% | 1012.8 hPa | 0 mm | - | 0 W/m² | - |
| 1778145402 | 19.44° C | 98% | 1012.6 hPa | 0 mm | - | 0 W/m² | - |
| 1778145099 | 19.44° C | 98% | 1012.3 hPa | 0 mm | - | 0 W/m² | - |
| 1778144794 | 19.44° C | 98% | 1012.3 hPa | 0 mm | - | 0 W/m² | - |
| 1778144492 | 19.44° C | 98% | 1012.4 hPa | 0 mm | - | 0 W/m² | - |
| 1778144189 | 19.44° C | 98% | 1012.2 hPa | 0 mm | - | 0 W/m² | - |
| 1778143885 | 19.44° C | 98% | 1012.3 hPa | 0 mm | - | 0 W/m² | - |
| 1778143582 | 19.44° C | 98% | 1012.2 hPa | 0 mm | - | 0 W/m² | - |
| 1778143279 | 19.44° C | 98% | 1012 hPa | 0 mm | - | 0 W/m² | - |
| 1778142975 | 19.44° C | 98% | 1011.8 hPa | 4.32 mm | - | 0 W/m² | - |
* Rain latest hour (hover to see other rain measurements)
** Current wind speed in m/s (hover to see current wind gust speed)